Вернуться в каталог

METEOR 1-14

АктивенПогодаPO
NORAD 6392·PAYLOAD·🇷🇺 Russia

Запущен Mar 20, 1973 с Plesetsk Cosmodrome

Loading…

Ближайшие Пролёты (ближайшие 24 часа)

TLE

СвежийSource: Space-Track

Эпоха: Sep 14, 2026, 13:37 UTC

1 06392U 73015A   26257.56776638 -.00000008  00000-0 -11294-4 0  9997
2 06392  81.2350 201.2827 0052129 307.2787  52.3635 14.08104627745278

Отслеживайте METEOR 1-14 в реальном времени с AllMySat

Download on the App Store